This is the latest recevied weather packets stored in our database for station/object N5DGC. If no packets are shown the sender has not sent any weather packets the latest 10 day(s).
| Time | Temp. | Humidity | Pressure | Rain* | Wind** | Luminosity | Snow |
|---|---|---|---|---|---|---|---|
| 1777851968 | 26.11° C | 18% | 1233.3 hPa | 0 mm | - | 304 W/m² | - |
| 1777851666 | 26.67° C | 18% | 1233.4 hPa | 0 mm | - | 326 W/m² | - |
| 1777851363 | 26.67° C | 17% | 1233.3 hPa | 0 mm | - | 350 W/m² | - |
| 1777851058 | 26.67° C | 17% | 1233.4 hPa | 0 mm | - | 375 W/m² | - |
| 1777850756 | 26.67° C | 16% | 1233.6 hPa | 0 mm | - | 397 W/m² | - |
| 1777850453 | 26.11° C | 17% | 1233.6 hPa | 0 mm | - | 416 W/m² | - |
| 1777850151 | 25° C | 18% | 1233.8 hPa | 0 mm | - | 438 W/m² | - |
| 1777849847 | 25.56° C | 17% | 1233.9 hPa | 0 mm | - | 454 W/m² | - |
| 1777849544 | 25° C | 18% | 1233.8 hPa | 0 mm | - | 468 W/m² | - |
| 1777849241 | 23.89° C | 18% | 1234.1 hPa | 0 mm | - | 499 W/m² | - |
| 1777848938 | 24.44° C | 17% | 1234.1 hPa | 0 mm | - | 523 W/m² | - |
| 1777848633 | 25° C | 18% | 1234.2 hPa | 0 mm | - | 543 W/m² | - |
| 1777848331 | 24.44° C | 18% | 1234.2 hPa | 0 mm | - | 563 W/m² | - |
| 1777848028 | 25.56° C | 17% | 1234.7 hPa | 0 mm | - | 581 W/m² | - |
| 1777847726 | 25° C | 17% | 1234.6 hPa | 0 mm | - | 598 W/m² | - |
| 1777847421 | 26.11° C | 17% | 1234.6 hPa | 0 mm | - | 613 W/m² | - |
| 1777847120 | 26.11° C | 17% | 1234.9 hPa | 0 mm | - | 632 W/m² | - |
| 1777846818 | 25.56° C | 17% | 1234.8 hPa | 0 mm | - | 645 W/m² | - |
| 1777846516 | 25.56° C | 18% | 1234.9 hPa | 0 mm | - | 660 W/m² | - |
| 1777846213 | 24.44° C | 21% | 1235.2 hPa | 0 mm | - | 671 W/m² | - |
| 1777845909 | 24.44° C | 21% | 1235.2 hPa | 0 mm | - | 688 W/m² | - |
| 1777845606 | 24.44° C | 21% | 1235.5 hPa | 0 mm | - | 701 W/m² | - |
| 1777845303 | 24.44° C | 22% | 1235.4 hPa | 0 mm | - | 711 W/m² | - |
| 1777845000 | 24.44° C | 20% | 1235.5 hPa | 0 mm | - | 725 W/m² | - |
| 1777844698 | 25° C | 20% | 1235.5 hPa | 0 mm | - | 742 W/m² | - |
* Rain latest hour (hover to see other rain measurements)
** Current wind speed in m/s (hover to see current wind gust speed)